Regional Weather Roundup
Issued by NWS

Home | Current Version | Previous Version | Graphics & Text | Print | Product List | Glossary Off
Versions: 1 2 3 4 5 6 7 8 9 10 11 12 13 14 15 16 17 18 19 20 21 22 23 24 25 26 27 28 29 30 31 32 33 34 35 36 37 38 39 40 41 42 43 44 45 46 47 48 49 50

000
ASUS43 KDMX 020407
RWRIA

WEATHER ROUNDUP FOR IOWA
NATIONAL WEATHER SERVICE DES MOINES IA
1100 PM CDT SAT AUG 01 2015

NOTE: "FAIR" INDICATES FEW OR NO CLOUDS BELOW 12,000 FEET WITH NO
SIGNIFICANT WEATHER AND/OR OBSTRUCTIONS TO VISIBILITY.

* - THESE STATIONS ARE NOT NWS STATIONS...THUS NOT UNDER NWS
QUALITY CONTROL.  THEY ALSO DO NOT REPORT WEATHER SUCH
AS PRECIPITATION OR FOG.

IAZ001>003-012>014-020>022-031>034-043>046-020500-
   NORTHWEST IOWA

CITY           SKY/WX    TMP DP  RH WIND       PRES   REMARKS
CARROLL *      CLEAR     72  70  94 SW6       29.90S
CHEROKEE *     CLEAR     68  68 100 S3        29.90R
DENISON *      CLEAR     72  70  94 SW5       29.90R
LE MARS *      CLEAR     70  66  88 S5        29.89S
ORANGE CITY *  CLEAR     68  64  88 S8        29.88F
SHELDON *      CLEAR     70  68  94 S8G16     29.86S
SIOUX CITY     CLEAR     69  64  84 SE7       29.89R
SPENCER        CLEAR     70  66  87 S8        29.88S
STORM LAKE *   CLEAR     68  66  94 SW6       29.92R
$$

IAZ055>058-069>071-079>083-090>094-020500-
   SOUTHWEST IOWA

CITY           SKY/WX    TMP DP  RH WIND       PRES   REMARKS
ATLANTIC *     CLEAR     70  70 100 SW3       29.92S
AUDUBON *      CLEAR     66  64  94 CALM      29.94R
CLARINDA *     CLEAR     75  66  73 S12G17    29.97R
COUNCIL BLFS * CLEAR     75  72  88 S8        29.93S
CRESTON *      PTCLDY    73  68  83 S14       29.97R
HARLAN  *      CLEAR     70  70 100 CALM      29.96R
LAMONI         CLEAR     71  66  84 SW8       29.96S
RED OAK *      CLEAR     73  72  94 S3        29.93S
SHENANDOAH *   CLEAR     77  73  88 SE15G24   29.94R
$$

IAZ047>049-059>061-072>074-084-020500-
   CENTRAL IOWA

CITY           SKY/WX    TMP DP  RH WIND       PRES   REMARKS
AMES           CLEAR     74  71  91 SW7       29.90S
ANKENY *       CLEAR     72  70  94 MISG      29.91S
CHARITON *     CLEAR     73  70  88 SW5       29.94S
DES MOINES     PTCLDY    77  70  79 S5        29.91R
GRINNELL*      CLEAR     73  70  88 S7        29.92S
KNOXVILLE *    CLEAR     75  70  83 SW9       29.92S
MARSHALLTOWN   CLEAR     73  70  90 S8        29.89F
PELLA *        PTCLDY    75  75 100 S9        29.94R
PERRY *          N/A     70  70 100 S7        29.91S
$$

IAZ004>006-015-016-023>025-035-036-020500-
   NORTH CENTRAL IOWA

CITY           SKY/WX    TMP DP  RH WIND       PRES   REMARKS
ALGONA *       CLEAR     68  66  94 S9        29.89R
CLARION *      CLEAR     70  68  94 S6        29.89S
ESTHERVILLE    CLEAR     70  66  87 SW9       29.87S
FORT DODGE *   CLEAR     72  66  83 S7        29.90S
MASON CITY     PTCLDY    73  69  87 SW9       29.89S
FOREST CITY *  CLEAR     68  68 100 S5        29.88F
IOWA FALLS *     N/A     72  68  88 SW6       29.90S
$$

IAZ007>011-017>019-026>030-037>042-050>054-066-020500-
   NORTHEAST IOWA

CITY           SKY/WX    TMP DP  RH WIND       PRES   REMARKS
CEDAR RAPIDS   CLEAR     70  70 100 S5        29.90F
CHARLES CITY * PTCLDY    70  70 100 SW7       29.89S
CLINTON *      CLEAR     68  64  88 SW5       29.93S
DECORAH *      CLEAR     72  68  88 S5        29.87S
DUBUQUE        CLEAR     70  67  90 SW6       29.91S
MONTICELLO *   CLEAR     70  68  94 S7        29.90F
OELWEIN *        N/A     72  70  94 S7        29.90S
WATERLOO       CLEAR     73  69  87 SW6       29.87F
$$

IAZ064-065-067-068-078-020500-
   EAST CENTRAL IOWA

CITY           SKY/WX    TMP DP  RH WIND       PRES   REMARKS
DAVENPORT      CLEAR     72  66  81 S7        29.92S
IOWA CITY      CLEAR     76  70  82 S6        29.92S
MT. PLEASANT * CLEAR     77  72  83 S8        29.93S
MUSCATINE *    CLEAR     72  68  88 S5        29.92S
QUAD CITIES    CLEAR     74  68  81 S7        29.91S
$$

IAZ062-063-075>077-085>089-095>099-020500-
   SOUTHEAST IOWA

CITY           SKY/WX    TMP DP  RH WIND       PRES   REMARKS
BURLINGTON     CLEAR     74  72  93 SW7       29.93S
FAIRFIELD *    CLEAR     75  72  88 SW5       29.93S
FORT MADISON * CLEAR     75  72  88 SW6       29.95S
KEOKUK *       CLEAR     75  72  88 SW5       29.93F
OSKALOOSA *      N/A     73  70  88 SW7       29.93S
CENTERVILLE *  CLEAR     70  66  88 SW6       29.96S
OTTUMWA        CLEAR     74  71  91 SW9       29.92R
WASHINGTON *   CLEAR     72  72 100 S6        29.93S
$$

ABBREVIATIONS USED IN REMARKS
   TC - TEMPERATURES IN CELSIUS
  WCI - WIND CHILL INDEX
   HX - HEAT INDEX
  VSB - VISIBILITY
$$




USA.gov is the U.S. government's official web portal to all federal, state and local government web resources and services.